Location: Trenton
(45.6167°N, 62.6167°W)
Time: 20:38:19
(UTC+00:00)

Nauka - Pass Details

Date: 04 October 2021
Orbit: 418 x 423 km, 51.6° (Epoch: 15 October)

Event Time Altitude Azimuth Distance (km) Brightness Sun altitude
Rises 23:47:03 0° 288° (WNW) 2,365 ? -22.1°
Reaches altitude 10° 23:49:40 10° 267° (W) 1,498 ? -22.5°
Maximum altitude 23:51:53 17° 225° (SW) 1,155 ? -22.9°
Enters shadow 23:52:25 16° 213° (SSW) 1,176 ? -23.0°
